contact:dominique.lefevre@mio.osupytheas.fr, maurice.libes@osupytheas.fr, didier.mallarino@osupytheas.fr
Project:EMSO http://www.emso-fr.org/EMSO-France
Depth: 2436.0 m
Title:EMSO Ligure Ouest : Data MII capteur MICROCAT
DateTime_Computer,Latitude,Longitude,Temperature,Conductivity,Pressure,DateTime_Instrument
DateTime_Computer,Latitude,Longitude,degC,S m-1,dbar,DateTime_Instrument
2021-03-05T00:02:59Z,42.805,6.029,13.2983,4.59986,2469.97,2021-3-05T02:04:05Z
2021-03-05T00:06:03Z,42.805,6.029,13.2980,4.59988,2470.017,2021-3-05T02:07:08Z
2021-03-05T00:09:06Z,42.805,6.029,13.2979,4.59994,2469.993,2021-3-05T02:10:11Z
2021-03-05T00:12:09Z,42.805,6.029,13.2982,4.59985,2469.993,2021-3-05T02:13:14Z
2021-03-05T00:15:12Z,42.805,6.029,13.2978,4.59983,2469.97,2021-3-05T02:16:17Z
2021-03-05T00:18:15Z,42.805,6.029,13.2982,4.59984,2469.97,2021-3-05T02:19:20Z
2021-03-05T00:21:18Z,42.805,6.029,13.2982,4.59984,2470.007,2021-3-05T02:22:23Z
2021-03-05T00:24:21Z,42.805,6.029,13.2981,4.59985,2469.97,2021-3-05T02:25:27Z
2021-03-05T00:27:24Z,42.805,6.029,13.2980,4.59985,2469.993,2021-3-05T02:28:30Z
2021-03-05T00:30:27Z,42.805,6.029,13.2982,4.59985,2469.97,2021-3-05T02:31:33Z
2021-03-05T00:33:31Z,42.805,6.029,13.2981,4.59985,2469.947,2021-3-05T02:34:36Z
2021-03-05T00:36:34Z,42.805,6.029,13.2982,4.59987,2469.984,2021-3-05T02:37:39Z
2021-03-05T00:39:37Z,42.805,6.029,13.2983,4.59991,2469.984,2021-3-05T02:40:42Z
2021-03-05T00:42:40Z,42.805,6.029,13.2983,4.59988,2469.984,2021-3-05T02:43:45Z
2021-03-05T00:45:43Z,42.805,6.029,13.2982,4.59990,2469.993,2021-3-05T02:46:48Z
2021-03-05T00:48:46Z,42.805,6.029,13.2983,4.59988,2469.97,2021-3-05T02:49:52Z
2021-03-05T00:51:49Z,42.805,6.029,13.2982,4.59991,2470.007,2021-3-05T02:52:55Z
2021-03-05T00:54:52Z,42.805,6.029,13.2982,4.59994,2470.007,2021-3-05T02:55:58Z
2021-03-05T00:57:56Z,42.805,6.029,13.2979,4.59996,2470.007,2021-3-05T02:59:01Z
2021-03-05T01:00:59Z,42.805,6.029,13.2982,4.59985,2469.96,2021-3-05T03:02:04Z
2021-03-05T01:04:02Z,42.805,6.029,13.2980,4.59987,2469.947,2021-3-05T03:05:07Z
2021-03-05T01:07:05Z,42.805,6.029,13.2982,4.59988,2469.97,2021-3-05T03:08:10Z
2021-03-05T01:10:08Z,42.805,6.029,13.2982,4.59986,2469.993,2021-3-05T03:11:13Z
2021-03-05T01:13:11Z,42.805,6.029,13.2980,4.59984,2469.97,2021-3-05T03:14:16Z
2021-03-05T01:16:14Z,42.805,6.029,13.2981,4.59985,2469.993,2021-3-05T03:17:20Z
2021-03-05T01:19:17Z,42.805,6.029,13.2982,4.59986,2469.97,2021-3-05T03:20:23Z
2021-03-05T01:22:21Z,42.805,6.029,13.2978,4.59985,2469.97,2021-3-05T03:23:26Z
2021-03-05T01:25:24Z,42.805,6.029,13.2981,4.59988,2470.007,2021-3-05T03:26:29Z
2021-03-05T01:28:27Z,42.805,6.029,13.2983,4.59999,2469.993,2021-3-05T03:29:32Z
2021-03-05T01:31:30Z,42.805,6.029,13.2981,4.59989,2469.984,2021-3-05T03:32:35Z
2021-03-05T01:34:33Z,42.805,6.029,13.2981,4.59998,2469.97,2021-3-05T03:35:38Z
2021-03-05T01:37:36Z,42.805,6.029,13.2979,4.59986,2469.96,2021-3-05T03:38:41Z
2021-03-05T01:40:39Z,42.805,6.029,13.2983,4.59986,2469.97,2021-3-05T03:41:45Z
2021-03-05T01:43:42Z,42.805,6.029,13.2982,4.59988,2469.984,2021-3-05T03:44:48Z
2021-03-05T01:46:46Z,42.805,6.029,13.2981,4.59988,2469.97,2021-3-05T03:47:51Z
2021-03-05T01:49:49Z,42.805,6.029,13.2982,4.59986,2469.97,2021-3-05T03:50:54Z
2021-03-05T01:52:52Z,42.805,6.029,13.2984,4.59988,2469.97,2021-3-05T03:53:57Z
2021-03-05T01:55:55Z,42.805,6.029,13.2982,4.59987,2469.947,2021-3-05T03:57:00Z
2021-03-05T01:58:58Z,42.805,6.029,13.2984,4.59994,2469.96,2021-3-05T04:00:03Z
2021-03-05T02:02:01Z,42.805,6.029,13.2987,4.59988,2469.97,2021-3-05T04:03:06Z
2021-03-05T02:05:04Z,42.805,6.029,13.2983,4.59990,2469.97,2021-3-05T04:06:09Z
2021-03-05T02:08:07Z,42.805,6.029,13.2981,4.60017,2469.96,2021-3-05T04:09:13Z
2021-03-05T02:11:10Z,42.805,6.029,13.2981,4.59989,2470.007,2021-3-05T04:12:16Z
2021-03-05T02:14:14Z,42.805,6.029,13.2980,4.59986,2469.984,2021-3-05T04:15:19Z
2021-03-05T02:17:17Z,42.805,6.029,13.2983,4.60008,2470.007,2021-3-05T04:18:22Z
2021-03-05T02:20:20Z,42.805,6.029,13.2979,4.59989,2469.947,2021-3-05T04:21:25Z
2021-03-05T02:23:23Z,42.805,6.029,13.2979,4.59994,2469.984,2021-3-05T04:24:28Z
2021-03-05T02:26:26Z,42.805,6.029,13.2981,4.59987,2469.947,2021-3-05T04:27:31Z
2021-03-05T02:29:29Z,42.805,6.029,13.2980,4.59986,2469.96,2021-3-05T04:30:34Z
2021-03-05T02:32:32Z,42.805,6.029,13.2978,4.59986,2469.947,2021-3-05T04:33:38Z
2021-03-05T02:35:35Z,42.805,6.029,13.2977,4.59991,2469.96,2021-3-05T04:36:41Z
2021-03-05T02:38:39Z,42.805,6.029,13.2982,4.59990,2469.984,2021-3-05T04:39:44Z
2021-03-05T02:41:42Z,42.805,6.029,13.2979,4.59988,2469.96,2021-3-05T04:42:47Z
2021-03-05T02:44:45Z,42.805,6.029,13.2979,4.59986,2469.947,2021-3-05T04:45:50Z
2021-03-05T02:47:48Z,42.805,6.029,13.2979,4.59988,2470.007,2021-3-05T04:48:53Z
2021-03-05T02:50:51Z,42.805,6.029,13.2980,4.59987,2469.96,2021-3-05T04:51:56Z
2021-03-05T02:53:54Z,42.805,6.029,13.2982,4.59986,2469.97,2021-3-05T04:54:59Z
2021-03-05T02:56:57Z,42.805,6.029,13.2988,4.59991,2469.947,2021-3-05T04:58:03Z
2021-03-05T03:00:00Z,42.805,6.029,13.2983,4.59985,2469.97,2021-3-05T05:01:06Z
2021-03-05T03:03:03Z,42.805,6.029,13.2982,4.59988,2469.947,2021-3-05T05:04:09Z
2021-03-05T03:06:07Z,42.805,6.029,13.2982,4.59985,2469.97,2021-3-05T05:07:12Z
2021-03-05T03:09:10Z,42.805,6.029,13.2982,4.59986,2469.937,2021-3-05T05:10:15Z
2021-03-05T03:12:13Z,42.805,6.029,13.2976,4.59991,2469.947,2021-3-05T05:13:18Z
2021-03-05T03:15:16Z,42.805,6.029,13.2981,4.59987,2469.947,2021-3-05T05:16:21Z
2021-03-05T03:18:19Z,42.805,6.029,13.2984,4.59988,2469.96,2021-3-05T05:19:24Z
2021-03-05T03:21:22Z,42.805,6.029,13.2981,4.59989,2469.933,2021-3-05T05:22:27Z
2021-03-05T03:24:25Z,42.805,6.029,13.2983,4.59991,2469.97,2021-3-05T05:25:31Z
2021-03-05T03:27:28Z,42.805,6.029,13.2981,4.59988,2469.947,2021-3-05T05:28:34Z
2021-03-05T03:30:32Z,42.805,6.029,13.2983,4.59989,2469.947,2021-3-05T05:31:37Z
2021-03-05T03:33:35Z,42.805,6.029,13.2977,4.59998,2469.923,2021-3-05T05:34:40Z
2021-03-05T03:36:38Z,42.805,6.029,13.2979,4.59995,2469.947,2021-3-05T05:37:43Z
2021-03-05T03:39:41Z,42.805,6.029,13.2976,4.59989,2469.923,2021-3-05T05:40:46Z
2021-03-05T03:42:44Z,42.805,6.029,13.2982,4.59998,2469.937,2021-3-05T05:43:49Z
2021-03-05T03:45:47Z,42.805,6.029,13.2981,4.59994,2469.923,2021-3-05T05:46:52Z
2021-03-05T03:48:50Z,42.805,6.029,13.2980,4.59993,2469.947,2021-3-05T05:49:56Z
2021-03-05T03:51:53Z,42.805,6.029,13.2983,4.60005,2469.97,2021-3-05T05:52:59Z
2021-03-05T03:54:56Z,42.805,6.029,13.2980,4.59990,2469.947,2021-3-05T05:56:02Z
2021-03-05T03:58:00Z,42.805,6.029,13.2981,4.59994,2469.923,2021-3-05T05:59:05Z
2021-03-05T04:01:03Z,42.805,6.029,13.2982,4.59987,2469.9,2021-3-05T06:02:08Z
2021-03-05T04:04:06Z,42.805,6.029,13.2983,4.59994,2469.937,2021-3-05T06:05:11Z
2021-03-05T04:07:09Z,42.805,6.029,13.2980,4.60003,2469.923,2021-3-05T06:08:14Z
2021-03-05T04:10:12Z,42.805,6.029,13.2979,4.60000,2469.97,2021-3-05T06:11:17Z
2021-03-05T04:13:15Z,42.805,6.029,13.2982,4.59994,2469.937,2021-3-05T06:14:20Z
2021-03-05T04:16:18Z,42.805,6.029,13.2986,4.59998,2469.96,2021-3-05T06:17:24Z
2021-03-05T04:19:21Z,42.805,6.029,13.2982,4.59996,2469.923,2021-3-05T06:20:27Z
2021-03-05T04:22:25Z,42.805,6.029,13.2986,4.59991,2469.947,2021-3-05T06:23:30Z
2021-03-05T04:25:28Z,42.805,6.029,13.2985,4.59989,2469.886,2021-3-05T06:26:33Z
2021-03-05T04:28:31Z,42.805,6.029,13.2985,4.59988,2469.923,2021-3-05T06:29:36Z
2021-03-05T04:31:34Z,42.805,6.029,13.2992,4.59991,2469.947,2021-3-05T06:32:39Z
2021-03-05T04:34:37Z,42.805,6.029,13.2983,4.60005,2469.923,2021-3-05T06:35:42Z
2021-03-05T04:37:40Z,42.805,6.029,13.2980,4.59986,2469.937,2021-3-05T06:38:45Z
2021-03-05T04:40:43Z,42.805,6.029,13.2979,4.59985,2469.937,2021-3-05T06:41:49Z
2021-03-05T04:43:46Z,42.805,6.029,13.2979,4.59985,2469.923,2021-3-05T06:44:52Z
2021-03-05T04:46:50Z,42.805,6.029,13.2983,4.59986,2469.947,2021-3-05T06:47:55Z
2021-03-05T04:49:53Z,42.805,6.029,13.2980,4.59990,2469.914,2021-3-05T06:50:58Z
2021-03-05T04:52:56Z,42.805,6.029,13.2982,4.59988,2469.933,2021-3-05T06:54:01Z
2021-03-05T04:55:59Z,42.805,6.029,13.2978,4.59986,2469.96,2021-3-05T06:57:04Z
2021-03-05T04:59:02Z,42.805,6.029,13.2981,4.59993,2469.96,2021-3-05T07:00:07Z
2021-03-05T05:02:05Z,42.805,6.029,13.2980,4.59989,2469.923,2021-3-05T07:03:10Z
2021-03-05T05:05:08Z,42.805,6.029,13.2981,4.59985,2469.937,2021-3-05T07:06:13Z
2021-03-05T05:08:11Z,42.805,6.029,13.2979,4.59986,2469.914,2021-3-05T07:09:17Z
2021-03-05T05:11:14Z,42.805,6.029,13.2981,4.59987,2469.876,2021-3-05T07:12:20Z
2021-03-05T05:14:18Z,42.805,6.029,13.2982,4.59992,2469.914,2021-3-05T07:15:23Z
2021-03-05T05:17:21Z,42.805,6.029,13.2979,4.59987,2469.923,2021-3-05T07:18:26Z
2021-03-05T05:20:24Z,42.805,6.029,13.2982,4.59989,2469.923,2021-3-05T07:21:29Z
2021-03-05T05:23:27Z,42.805,6.029,13.2984,4.59992,2469.9,2021-3-05T07:24:32Z
2021-03-05T05:26:30Z,42.805,6.029,13.2983,4.59987,2469.923,2021-3-05T07:27:35Z
2021-03-05T05:29:33Z,42.805,6.029,13.2983,4.59996,2469.937,2021-3-05T07:30:38Z
2021-03-05T05:32:36Z,42.805,6.029,13.2989,4.59986,2469.96,2021-3-05T07:33:42Z
2021-03-05T05:35:39Z,42.805,6.029,13.2979,4.59985,2469.923,2021-3-05T07:36:45Z
2021-03-05T05:38:42Z,42.805,6.029,13.2980,4.59986,2469.937,2021-3-05T07:39:48Z
2021-03-05T05:41:46Z,42.805,6.029,13.2978,4.59986,2469.923,2021-3-05T07:42:51Z
2021-03-05T05:44:49Z,42.805,6.029,13.2982,4.59992,2469.937,2021-3-05T07:45:54Z
2021-03-05T05:47:52Z,42.805,6.029,13.2990,4.59988,2469.923,2021-3-05T07:48:57Z
2021-03-05T05:50:55Z,42.805,6.029,13.2992,4.59995,2469.923,2021-3-05T07:52:00Z
2021-03-05T05:53:58Z,42.805,6.029,13.2986,4.59990,2469.923,2021-3-05T07:55:03Z
2021-03-05T05:57:01Z,42.805,6.029,13.2985,4.59987,2469.914,2021-3-05T07:58:07Z
2021-03-05T06:00:04Z,42.805,6.029,13.2985,4.59987,2469.923,2021-3-05T08:01:10Z
2021-03-05T06:03:07Z,42.805,6.029,13.2989,4.59991,2469.9,2021-3-05T08:04:13Z
2021-03-05T06:06:11Z,42.805,6.029,13.2989,4.59990,2469.923,2021-3-05T08:07:16Z
2021-03-05T06:09:14Z,42.805,6.029,13.2993,4.59993,2469.96,2021-3-05T08:10:19Z
2021-03-05T06:12:17Z,42.805,6.029,13.2996,4.59991,2469.923,2021-3-05T08:13:22Z
2021-03-05T06:15:20Z,42.805,6.029,13.2989,4.59991,2469.937,2021-3-05T08:16:25Z
2021-03-05T06:18:23Z,42.805,6.029,13.2990,4.59990,2469.96,2021-3-05T08:19:28Z
2021-03-05T06:21:26Z,42.805,6.029,13.2993,4.59989,2469.937,2021-3-05T08:22:31Z
2021-03-05T06:24:29Z,42.805,6.029,13.2999,4.59988,2469.96,2021-3-05T08:25:35Z
2021-03-05T06:27:32Z,42.805,6.029,13.2990,4.59989,2469.96,2021-3-05T08:28:38Z
2021-03-05T06:30:36Z,42.805,6.029,13.2990,4.59988,2469.923,2021-3-05T08:31:41Z
2021-03-05T06:33:39Z,42.805,6.029,13.2982,4.59991,2469.937,2021-3-05T08:34:44Z
2021-03-05T06:36:42Z,42.805,6.029,13.2984,4.59989,2469.96,2021-3-05T08:37:47Z
2021-03-05T06:39:45Z,42.805,6.029,13.2981,4.60005,2469.9,2021-3-05T08:40:50Z
2021-03-05T06:42:48Z,42.805,6.029,13.2982,4.59999,2469.923,2021-3-05T08:43:53Z
2021-03-05T06:45:51Z,42.805,6.029,13.2982,4.59999,2469.909,2021-3-05T08:46:56Z
2021-03-05T06:48:54Z,42.805,6.029,13.2976,4.60017,2469.9,2021-3-05T08:50:00Z
2021-03-05T06:51:57Z,42.805,6.029,13.2981,4.60009,2469.96,2021-3-05T08:53:03Z
2021-03-05T06:55:00Z,42.805,6.029,13.2977,4.59990,2469.923,2021-3-05T08:56:06Z
2021-03-05T06:58:04Z,42.805,6.029,13.2980,4.59992,2469.9,2021-3-05T08:59:09Z
2021-03-05T07:01:07Z,42.805,6.029,13.2982,4.59993,2469.909,2021-3-05T09:02:12Z
2021-03-05T07:04:10Z,42.805,6.029,13.2982,4.59994,2469.923,2021-3-05T09:05:15Z
2021-03-05T07:07:13Z,42.805,6.029,13.2985,4.60002,2469.923,2021-3-05T09:08:18Z
2021-03-05T07:10:16Z,42.805,6.029,13.2982,4.60001,2469.96,2021-3-05T09:11:21Z
2021-03-05T07:13:19Z,42.805,6.029,13.2983,4.59999,2469.96,2021-3-05T09:14:24Z
2021-03-05T07:16:22Z,42.805,6.029,13.2985,4.60005,2469.97,2021-3-05T09:17:28Z
2021-03-05T07:19:25Z,42.805,6.029,13.3120,4.60014,2469.97,2021-3-05T09:20:31Z
2021-03-05T07:22:28Z,42.805,6.029,13.3098,4.60039,2469.937,2021-3-05T09:23:34Z
2021-03-05T07:25:32Z,42.805,6.029,13.3015,4.60027,2469.947,2021-3-05T09:26:37Z
2021-03-05T07:28:35Z,42.805,6.029,13.2991,4.60045,2469.947,2021-3-05T09:29:40Z
2021-03-05T07:31:38Z,42.805,6.029,13.2990,4.60043,2469.993,2021-3-05T09:32:43Z
2021-03-05T07:34:41Z,42.805,6.029,13.3000,4.60026,2470.007,2021-3-05T09:35:46Z
2021-03-05T07:37:44Z,42.805,6.029,13.3014,4.60031,2469.947,2021-3-05T09:38:49Z
2021-03-05T07:40:47Z,42.805,6.029,13.3015,4.60052,2469.97,2021-3-05T09:41:53Z
2021-03-05T07:43:50Z,42.805,6.029,13.2998,4.60052,2469.947,2021-3-05T09:44:56Z
2021-03-05T07:46:53Z,42.805,6.029,13.3004,4.60052,2469.96,2021-3-05T09:47:59Z
2021-03-05T07:49:57Z,42.805,6.029,13.3012,4.60020,2469.984,2021-3-05T09:51:02Z
2021-03-05T07:53:00Z,42.805,6.029,13.3031,4.60021,2469.97,2021-3-05T09:54:05Z
2021-03-05T07:56:03Z,42.805,6.029,13.3036,4.60029,2469.993,2021-3-05T09:57:08Z
2021-03-05T07:59:06Z,42.805,6.029,13.3046,4.60027,2469.993,2021-3-05T10:00:11Z
2021-03-05T08:02:09Z,42.805,6.029,13.3031,4.60074,2469.984,2021-3-05T10:03:14Z
2021-03-05T08:05:12Z,42.805,6.029,13.3055,4.60074,2470.03,2021-3-05T10:06:17Z
2021-03-05T08:08:15Z,42.805,6.029,13.2986,4.60147,2470.017,2021-3-05T10:09:21Z
2021-03-05T08:11:18Z,42.805,6.029,13.2989,4.60107,2469.993,2021-3-05T10:12:24Z
2021-03-05T08:14:21Z,42.805,6.029,13.2985,4.60087,2469.993,2021-3-05T10:15:27Z
2021-03-05T08:17:25Z,42.805,6.029,13.2982,4.60073,2470.007,2021-3-05T10:18:30Z
2021-03-05T08:20:28Z,42.805,6.029,13.2983,4.60054,2470.017,2021-3-05T10:21:33Z
2021-03-05T08:23:31Z,42.805,6.029,13.2979,4.60034,2470.017,2021-3-05T10:24:36Z
2021-03-05T08:26:34Z,42.805,6.029,13.2980,4.60038,2470.017,2021-3-05T10:27:39Z
2021-03-05T08:29:37Z,42.805,6.029,13.2985,4.60046,2469.993,2021-3-05T10:30:42Z
2021-03-05T08:32:40Z,42.805,6.029,13.2982,4.60048,2470.017,2021-3-05T10:33:46Z
2021-03-05T08:35:43Z,42.805,6.029,13.2980,4.60039,2470.053,2021-3-05T10:36:49Z
2021-03-05T08:38:46Z,42.805,6.029,13.2982,4.60019,2470.04,2021-3-05T10:39:52Z
2021-03-05T08:41:50Z,42.805,6.029,13.2981,4.60023,2470.063,2021-3-05T10:42:55Z
2021-03-05T08:44:53Z,42.805,6.029,13.2983,4.60010,2470.017,2021-3-05T10:45:58Z
2021-03-05T08:47:56Z,42.805,6.029,13.2982,4.60020,2470.04,2021-3-05T10:49:01Z
2021-03-05T08:50:59Z,42.805,6.029,13.2982,4.60019,2470.03,2021-3-05T10:52:04Z
2021-03-05T08:54:02Z,42.805,6.029,13.2983,4.60021,2470.017,2021-3-05T10:55:07Z
2021-03-05T08:57:05Z,42.805,6.029,13.2977,4.60011,2470.063,2021-3-05T10:58:11Z
2021-03-05T09:00:08Z,42.805,6.029,13.2981,4.60022,2470.053,2021-3-05T11:01:14Z
2021-03-05T09:03:11Z,42.805,6.029,13.2977,4.60016,2470.11,2021-3-05T11:04:17Z
2021-03-05T09:06:15Z,42.805,6.029,13.2979,4.60016,2470.063,2021-3-05T11:07:20Z
2021-03-05T09:09:18Z,42.805,6.029,13.2983,4.60018,2470.077,2021-3-05T11:10:23Z
2021-03-05T09:12:21Z,42.805,6.029,13.2981,4.60011,2470.063,2021-3-05T11:13:26Z
2021-03-05T09:15:24Z,42.805,6.029,13.2982,4.60006,2470.063,2021-3-05T11:16:29Z
2021-03-05T09:18:27Z,42.805,6.029,13.2983,4.60012,2470.017,2021-3-05T11:19:32Z
2021-03-05T09:21:30Z,42.805,6.029,13.2978,4.59999,2470.063,2021-3-05T11:22:36Z
2021-03-05T09:24:33Z,42.805,6.029,13.2980,4.59996,2470.04,2021-3-05T11:25:39Z
2021-03-05T09:27:36Z,42.805,6.029,13.2982,4.60003,2470.087,2021-3-05T11:28:42Z
2021-03-05T09:30:40Z,42.805,6.029,13.2982,4.59996,2470.087,2021-3-05T11:31:45Z
2021-03-05T09:33:43Z,42.805,6.029,13.2981,4.59999,2470.063,2021-3-05T11:34:48Z
2021-03-05T09:36:46Z,42.805,6.029,13.2980,4.60006,2470.063,2021-3-05T11:37:51Z
2021-03-05T09:39:49Z,42.805,6.029,13.2982,4.60003,2470.077,2021-3-05T11:40:54Z
2021-03-05T09:42:52Z,42.805,6.029,13.2976,4.59997,2470.063,2021-3-05T11:43:57Z
2021-03-05T09:45:55Z,42.805,6.029,13.2979,4.60011,2470.087,2021-3-05T11:47:01Z
2021-03-05T09:48:58Z,42.805,6.029,13.2983,4.60017,2470.063,2021-3-05T11:50:04Z
2021-03-05T09:52:01Z,42.805,6.029,13.2977,4.60011,2470.063,2021-3-05T11:53:07Z
2021-03-05T09:55:05Z,42.805,6.029,13.2983,4.60006,2470.11,2021-3-05T11:56:10Z
2021-03-05T09:58:08Z,42.805,6.029,13.2978,4.59999,2470.1,2021-3-05T11:59:13Z
2021-03-05T10:01:11Z,42.805,6.029,13.2981,4.60002,2470.11,2021-3-05T12:02:16Z
2021-03-05T10:04:14Z,42.805,6.029,13.2983,4.60006,2470.147,2021-3-05T12:05:19Z
2021-03-05T10:07:17Z,42.805,6.029,13.2979,4.59993,2470.11,2021-3-05T12:08:22Z
2021-03-05T10:10:20Z,42.805,6.029,13.2980,4.59996,2470.087,2021-3-05T12:11:26Z
2021-03-05T10:13:23Z,42.805,6.029,13.2981,4.59998,2470.087,2021-3-05T12:14:29Z
2021-03-05T10:16:26Z,42.805,6.029,13.2980,4.59994,2470.11,2021-3-05T12:17:32Z
2021-03-05T10:19:30Z,42.805,6.029,13.2978,4.59991,2470.11,2021-3-05T12:20:35Z
2021-03-05T10:22:33Z,42.805,6.029,13.2982,4.59992,2470.087,2021-3-05T12:23:38Z
2021-03-05T10:25:36Z,42.805,6.029,13.2978,4.59994,2470.11,2021-3-05T12:26:41Z
2021-03-05T10:28:39Z,42.805,6.029,13.2983,4.59992,2470.087,2021-3-05T12:29:44Z
2021-03-05T10:31:42Z,42.805,6.029,13.2982,4.59994,2470.11,2021-3-05T12:32:47Z
2021-03-05T10:34:45Z,42.805,6.029,13.2980,4.59989,2470.087,2021-3-05T12:35:51Z
2021-03-05T10:37:48Z,42.805,6.029,13.2982,4.59988,2470.087,2021-3-05T12:38:54Z
2021-03-05T10:40:51Z,42.805,6.029,13.2978,4.59988,2470.11,2021-3-05T12:41:57Z
2021-03-05T10:43:55Z,42.805,6.029,13.2981,4.59994,2470.133,2021-3-05T12:45:00Z
2021-03-05T10:46:58Z,42.805,6.029,13.2978,4.59988,2470.1,2021-3-05T12:48:03Z
2021-03-05T10:50:01Z,42.805,6.029,13.2978,4.59995,2470.11,2021-3-05T12:51:06Z
2021-03-05T10:53:04Z,42.805,6.029,13.2980,4.59995,2470.1,2021-3-05T12:54:09Z
2021-03-05T10:56:07Z,42.805,6.029,13.2982,4.59999,2470.11,2021-3-05T12:57:12Z
2021-03-05T10:59:10Z,42.805,6.029,13.2979,4.60006,2470.133,2021-3-05T13:00:16Z
2021-03-05T11:02:13Z,42.805,6.029,13.2980,4.60003,2470.124,2021-3-05T13:03:19Z
2021-03-05T11:05:16Z,42.805,6.029,13.2980,4.59995,2470.11,2021-3-05T13:06:22Z
2021-03-05T11:08:20Z,42.805,6.029,13.2981,4.60002,2470.124,2021-3-05T13:09:25Z
2021-03-05T11:11:23Z,42.805,6.029,13.2976,4.59996,2470.147,2021-3-05T13:12:28Z
2021-03-05T11:14:26Z,42.805,6.029,13.2978,4.59998,2470.11,2021-3-05T13:15:31Z
2021-03-05T11:17:29Z,42.805,6.029,13.2982,4.59997,2470.133,2021-3-05T13:18:34Z
2021-03-05T11:20:32Z,42.805,6.029,13.2980,4.59991,2470.124,2021-3-05T13:21:37Z
2021-03-05T11:23:35Z,42.805,6.029,13.2980,4.59997,2470.124,2021-3-05T13:24:41Z
2021-03-05T11:26:38Z,42.805,6.029,13.2982,4.60004,2470.11,2021-3-05T13:27:44Z
2021-03-05T11:29:41Z,42.805,6.029,13.2979,4.60001,2470.11,2021-3-05T13:30:47Z
2021-03-05T11:32:45Z,42.805,6.029,13.2978,4.59991,2470.11,2021-3-05T13:33:50Z
2021-03-05T11:35:48Z,42.805,6.029,13.2983,4.59996,2470.194,2021-3-05T13:36:53Z
2021-03-05T11:38:51Z,42.805,6.029,13.2978,4.59991,2470.124,2021-3-05T13:39:56Z
2021-03-05T11:41:54Z,42.805,6.029,13.2981,4.59993,2470.133,2021-3-05T13:42:59Z
2021-03-05T11:44:57Z,42.805,6.029,13.2979,4.59994,2470.119,2021-3-05T13:46:02Z
2021-03-05T11:48:00Z,42.805,6.029,13.2979,4.59993,2470.171,2021-3-05T13:49:06Z
2021-03-05T11:51:03Z,42.805,6.029,13.2978,4.60005,2470.133,2021-3-05T13:52:09Z
2021-03-05T11:54:06Z,42.805,6.029,13.2982,4.59994,2470.171,2021-3-05T13:55:12Z
2021-03-05T11:57:10Z,42.805,6.029,13.2982,4.59994,2470.133,2021-3-05T13:58:15Z
2021-03-05T12:00:13Z,42.805,6.029,13.2979,4.59993,2470.133,2021-3-05T14:01:18Z
2021-03-05T12:03:16Z,42.805,6.029,13.2982,4.59991,2470.147,2021-3-05T14:04:21Z
2021-03-05T12:06:19Z,42.805,6.029,13.2982,4.59992,2470.133,2021-3-05T14:07:24Z
2021-03-05T12:09:22Z,42.805,6.029,13.2982,4.59999,2470.124,2021-3-05T14:10:27Z
2021-03-05T12:12:25Z,42.805,6.029,13.2981,4.59994,2470.147,2021-3-05T14:13:31Z
2021-03-05T12:15:28Z,42.805,6.029,13.2979,4.60003,2470.133,2021-3-05T14:16:34Z
2021-03-05T12:18:31Z,42.805,6.029,13.2981,4.59998,2470.124,2021-3-05T14:19:37Z
2021-03-05T12:21:35Z,42.805,6.029,13.2982,4.60007,2470.147,2021-3-05T14:22:40Z
2021-03-05T12:24:38Z,42.805,6.029,13.2981,4.59992,2470.133,2021-3-05T14:25:43Z
2021-03-05T12:27:41Z,42.805,6.029,13.2982,4.60003,2470.087,2021-3-05T14:28:46Z
2021-03-05T12:30:44Z,42.805,6.029,13.2979,4.59998,2470.133,2021-3-05T14:31:49Z
2021-03-05T12:33:47Z,42.805,6.029,13.2983,4.59991,2470.133,2021-3-05T14:34:52Z
2021-03-05T12:36:50Z,42.805,6.029,13.2979,4.59986,2470.133,2021-3-05T14:37:56Z
2021-03-05T12:39:53Z,42.805,6.029,13.2979,4.59998,2470.087,2021-3-05T14:40:59Z
2021-03-05T12:42:56Z,42.805,6.029,13.2982,4.59995,2470.1,2021-3-05T14:44:02Z
2021-03-05T12:46:00Z,42.805,6.029,13.2982,4.59991,2470.133,2021-3-05T14:47:05Z
2021-03-05T12:49:03Z,42.805,6.029,13.2978,4.59996,2470.1,2021-3-05T14:50:08Z
2021-03-05T12:52:06Z,42.805,6.029,13.2981,4.59991,2470.124,2021-3-05T14:53:11Z
2021-03-05T12:55:09Z,42.805,6.029,13.2980,4.59996,2470.11,2021-3-05T14:56:14Z
2021-03-05T12:58:12Z,42.805,6.029,13.2982,4.59994,2470.124,2021-3-05T14:59:17Z
2021-03-05T13:01:15Z,42.805,6.029,13.2979,4.59995,2470.087,2021-3-05T15:02:20Z
2021-03-05T13:04:18Z,42.805,6.029,13.2985,4.59999,2470.087,2021-3-05T15:05:24Z
2021-03-05T13:07:21Z,42.805,6.029,13.2982,4.59990,2470.11,2021-3-05T15:08:27Z
2021-03-05T13:10:25Z,42.805,6.029,13.2983,4.59991,2470.11,2021-3-05T15:11:30Z
2021-03-05T13:13:28Z,42.805,6.029,13.2980,4.59991,2470.147,2021-3-05T15:14:33Z
2021-03-05T13:16:31Z,42.805,6.029,13.2976,4.59990,2470.124,2021-3-05T15:17:36Z
2021-03-05T13:19:34Z,42.805,6.029,13.2981,4.59993,2470.087,2021-3-05T15:20:39Z
2021-03-05T13:22:37Z,42.805,6.029,13.2979,4.59992,2470.124,2021-3-05T15:23:42Z
2021-03-05T13:25:40Z,42.805,6.029,13.2982,4.59986,2470.087,2021-3-05T15:26:45Z
2021-03-05T13:28:43Z,42.805,6.029,13.2983,4.59991,2470.147,2021-3-05T15:29:49Z
2021-03-05T13:31:46Z,42.805,6.029,13.2983,4.59986,2470.124,2021-3-05T15:32:52Z
2021-03-05T13:34:50Z,42.805,6.029,13.2982,4.59992,2470.124,2021-3-05T15:35:55Z
2021-03-05T13:37:53Z,42.805,6.029,13.2980,4.59991,2470.087,2021-3-05T15:38:58Z
2021-03-05T13:40:56Z,42.805,6.029,13.2979,4.59987,2470.087,2021-3-05T15:42:01Z
2021-03-05T13:43:59Z,42.805,6.029,13.2979,4.59991,2470.11,2021-3-05T15:45:04Z
2021-03-05T13:47:02Z,42.805,6.029,13.2980,4.59986,2470.063,2021-3-05T15:48:07Z
2021-03-05T13:50:05Z,42.805,6.029,13.2982,4.59986,2470.11,2021-3-05T15:51:10Z
2021-03-05T13:53:08Z,42.805,6.029,13.2979,4.59988,2470.087,2021-3-05T15:54:14Z
2021-03-05T13:56:11Z,42.805,6.029,13.2982,4.59987,2470.11,2021-3-05T15:57:17Z
2021-03-05T13:59:15Z,42.805,6.029,13.2983,4.59987,2470.11,2021-3-05T16:00:20Z
2021-03-05T14:02:18Z,42.805,6.029,13.2981,4.59986,2470.087,2021-3-05T16:03:23Z
2021-03-05T14:05:21Z,42.805,6.029,13.2981,4.59992,2470.087,2021-3-05T16:06:26Z
2021-03-05T14:08:24Z,42.805,6.029,13.2983,4.59989,2470.11,2021-3-05T16:09:29Z
2021-03-05T14:11:27Z,42.805,6.029,13.2980,4.59991,2470.087,2021-3-05T16:12:32Z
2021-03-05T14:14:30Z,42.805,6.029,13.2979,4.59986,2470.063,2021-3-05T16:15:35Z
2021-03-05T14:17:33Z,42.805,6.029,13.2981,4.59986,2470.11,2021-3-05T16:18:39Z
2021-03-05T14:20:36Z,42.805,6.029,13.2982,4.59985,2470.087,2021-3-05T16:21:42Z
2021-03-05T14:23:39Z,42.805,6.029,13.2981,4.59991,2470.11,2021-3-05T16:24:45Z
2021-03-05T14:26:43Z,42.805,6.029,13.2985,4.59992,2470.1,2021-3-05T16:27:48Z
2021-03-05T14:29:46Z,42.805,6.029,13.2982,4.59986,2470.11,2021-3-05T16:30:51Z
2021-03-05T14:32:49Z,42.805,6.029,13.2982,4.59991,2470.087,2021-3-05T16:33:54Z
2021-03-05T14:35:52Z,42.805,6.029,13.2983,4.59984,2470.087,2021-3-05T16:36:57Z
2021-03-05T14:38:55Z,42.805,6.029,13.2982,4.59989,2470.087,2021-3-05T16:40:00Z
2021-03-05T14:41:58Z,42.805,6.029,13.2982,4.59987,2470.087,2021-3-05T16:43:04Z
2021-03-05T14:45:01Z,42.805,6.029,13.2979,4.59987,2470.11,2021-3-05T16:46:07Z
2021-03-05T14:48:04Z,42.805,6.029,13.2982,4.59985,2470.11,2021-3-05T16:49:10Z
2021-03-05T14:51:08Z,42.805,6.029,13.2982,4.59984,2470.124,2021-3-05T16:52:13Z
2021-03-05T14:54:11Z,42.805,6.029,13.2983,4.59984,2470.063,2021-3-05T16:55:16Z
2021-03-05T14:57:14Z,42.805,6.029,13.2979,4.59985,2470.04,2021-3-05T16:58:19Z
2021-03-05T15:00:17Z,42.805,6.029,13.2982,4.59990,2470.087,2021-3-05T17:01:22Z
2021-03-05T15:03:20Z,42.805,6.029,13.2983,4.59985,2470.077,2021-3-05T17:04:25Z
2021-03-05T15:06:23Z,42.805,6.029,13.2976,4.59984,2470.087,2021-3-05T17:07:29Z
2021-03-05T15:09:26Z,42.805,6.029,13.2982,4.59986,2470.087,2021-3-05T17:10:32Z
2021-03-05T15:12:29Z,42.805,6.029,13.2983,4.59985,2470.063,2021-3-05T17:13:35Z
2021-03-05T15:15:33Z,42.805,6.029,13.2984,4.59986,2470.1,2021-3-05T17:16:38Z